Location: Guferjoch
(46.7462°N, 8.4506°E)
Time: 13:18:44
(UTC+00:00)

Cosmos 1544 - Pass Details

Date: 14 July 2020
Orbit: 473 x 490 km, 82.5° (Epoch: 07 August)

Event Time Altitude Azimuth Distance (km) Brightness Sun altitude
Exits shadow 02:59:58 - 194° (SSW) 2,042 5.7 -7.1°
Reaches altitude 10° 03:00:57 10° 195° (SSW) 1,636 5.2 -7.0°
Maximum altitude 03:04:30 71° 279° (W) 505 3.0 -6.6°
Drops below altitude 10° 03:08:06 10° 5° (N) 1,651 6.5 -6.1°
Sets 03:10:13 0° 8° (N) 2,536 7.5 -5.8°
